Time,TemperatureF,DewpointF,PressureIn,WindDirection,WindDirectionDegrees,WindSpeedMPH,WindSpeedGustMPH,Humidity,HourlyPrecipIn,Conditions,Clouds,dailyrainin,SolarRadiationWatts/m^2,SoftwareType,DateUTC
2013-03-05 00:00:00,22.5,20.0,29.88,WNW,299,0.0,0.0,90,0.00,,,0.00,0,Wunderground v.1.15,2013-03-05 05:00:00,
2013-03-05 00:01:00,22.5,20.0,29.88,WNW,299,0.0,0.0,90,0.00,,,0.00,0,Wunderground v.1.15,2013-03-05 05:01:00,
2013-03-05 00:03:00,22.5,20.0,29.88,WNW,299,0.0,0.0,90,0.00,,,0.00,0,Wunderground v.1.15,2013-03-05 05:03:00,
2013-03-05 00:04:00,22.5,20.0,29.88,WNW,299,0.0,0.0,90,0.00,,,0.00,0,Wunderground v.1.15,2013-03-05 05:04:00,
2013-03-05 00:09:00,22.5,20.0,29.88,WNW,299,0.0,0.0,90,0.00,,,0.00,0,Wunderground v.1.15,2013-03-05 05:09:00,
2013-03-05 00:15:00,22.4,19.9,29.88,WNW,299,0.0,0.0,90,0.00,,,0.00,0,Wunderground v.1.15,2013-03-05 05:15:00,
2013-03-05 00:20:00,22.3,19.8,29.88,WNW,299,0.0,0.0,90,0.00,,,0.00,0,Wunderground v.1.15,2013-03-05 05:20:00,
2013-03-05 00:25:00,22.3,19.8,29.88,WNW,299,0.0,0.0,90,0.00,,,0.00,0,Wunderground v.1.15,2013-03-05 05:25:00,
2013-03-05 00:31:00,22.2,19.7,29.88,WNW,299,0.0,0.0,90,0.00,,,0.00,0,Wunderground v.1.15,2013-03-05 05:31:00,
2013-03-05 00:37:00,22.2,19.7,29.88,WNW,299,0.0,0.0,90,0.00,,,0.00,0,Wunderground v.1.15,2013-03-05 05:37:00,
2013-03-05 00:42:00,22.1,19.6,29.88,WNW,299,0.0,0.0,90,0.00,,,0.00,0,Wunderground v.1.15,2013-03-05 05:42:00,
2013-03-05 00:48:00,22.1,19.6,29.88,WNW,299,0.0,0.0,90,0.00,,,0.00,0,Wunderground v.1.15,2013-03-05 05:48:00,
2013-03-05 00:53:00,22.0,19.5,29.88,WNW,299,0.0,0.0,90,0.00,,,0.00,0,Wunderground v.1.15,2013-03-05 05:53:00,
2013-03-05 00:59:00,21.9,19.4,29.89,WNW,299,0.0,0.0,90,0.00,,,0.00,0,Wunderground v.1.15,2013-03-05 05:59:00,
2013-03-05 01:04:00,21.8,19.3,29.89,WNW,299,0.0,0.0,90,0.00,,,0.00,0,Wunderground v.1.15,2013-03-05 06:04:00,
2013-03-05 01:10:00,21.7,19.2,29.89,WNW,299,0.0,0.0,90,0.00,,,0.00,0,Wunderground v.1.15,2013-03-05 06:10:00,
2013-03-05 01:15:00,21.5,19.0,29.88,WNW,299,0.0,0.0,90,0.00,,,0.00,0,Wunderground v.1.15,2013-03-05 06:15:00,
2013-03-05 01:20:00,21.3,18.8,29.89,WNW,299,0.0,0.0,90,0.00,,,0.00,0,Wunderground v.1.15,2013-03-05 06:20:00,
2013-03-05 01:26:00,21.2,18.7,29.89,WNW,299,0.0,0.0,90,0.00,,,0.00,0,Wunderground v.1.15,2013-03-05 06:26:00,
2013-03-05 01:32:00,21.1,18.6,29.89,WNW,299,0.0,0.0,90,0.00,,,0.00,0,Wunderground v.1.15,2013-03-05 06:32:00,
2013-03-05 01:38:00,21.1,18.6,29.89,WNW,299,0.0,0.0,90,0.00,,,0.00,0,Wunderground v.1.15,2013-03-05 06:38:00,
2013-03-05 01:43:00,20.9,18.4,29.89,WNW,299,0.0,0.0,90,0.00,,,0.00,0,Wunderground v.1.15,2013-03-05 06:43:00,
2013-03-05 01:49:00,20.7,18.2,29.89,WNW,299,0.0,0.0,90,0.00,,,0.00,0,Wunderground v.1.15,2013-03-05 06:49:00,
2013-03-05 01:54:00,20.6,18.1,29.89,WNW,299,0.0,0.0,90,0.00,,,0.00,0,Wunderground v.1.15,2013-03-05 06:54:00,
2013-03-05 02:00:00,20.4,17.9,29.90,WNW,299,0.0,0.0,90,0.00,,,0.00,0,Wunderground v.1.15,2013-03-05 07:00:00,
2013-03-05 02:06:00,20.3,17.8,29.89,WNW,299,0.0,0.0,90,0.00,,,0.00,0,Wunderground v.1.15,2013-03-05 07:06:00,
2013-03-05 02:11:00,20.2,18.0,29.89,WNW,299,0.0,0.0,91,0.00,,,0.00,0,Wunderground v.1.15,2013-03-05 07:11:00,
2013-03-05 02:17:00,20.3,18.1,29.89,WNW,299,0.0,0.0,91,0.00,,,0.00,0,Wunderground v.1.15,2013-03-05 07:17:00,
2013-03-05 02:22:00,20.3,18.1,29.89,WNW,299,0.0,0.0,91,0.00,,,0.00,0,Wunderground v.1.15,2013-03-05 07:22:00,
2013-03-05 02:28:00,20.2,18.0,29.89,WNW,299,0.0,0.0,91,0.00,,,0.00,0,Wunderground v.1.15,2013-03-05 07:28:00,
2013-03-05 02:34:00,20.1,17.9,29.89,WNW,299,0.0,0.0,91,0.00,,,0.00,0,Wunderground v.1.15,2013-03-05 07:34:00,
2013-03-05 02:40:00,20.1,17.9,29.89,WNW,299,0.0,0.0,91,0.00,,,0.00,0,Wunderground v.1.15,2013-03-05 07:40:00,
2013-03-05 02:46:00,20.0,17.8,29.89,WNW,299,0.0,0.0,91,0.00,,,0.00,0,Wunderground v.1.15,2013-03-05 07:46:00,
2013-03-05 02:52:00,19.9,17.7,29.89,WNW,299,0.0,0.0,91,0.00,,,0.00,0,Wunderground v.1.15,2013-03-05 07:52:00,
2013-03-05 02:57:00,19.8,17.6,29.89,WNW,299,0.0,0.0,91,0.00,,,0.00,0,Wunderground v.1.15,2013-03-05 07:57:00,
2013-03-05 03:02:00,19.7,17.5,29.89,WNW,299,0.0,0.0,91,0.00,,,0.00,0,Wunderground v.1.15,2013-03-05 08:02:00,
2013-03-05 03:07:00,19.6,17.4,29.89,WNW,299,0.0,0.0,91,0.00,,,0.00,0,Wunderground v.1.15,2013-03-05 08:07:00,
2013-03-05 03:13:00,19.5,17.3,29.89,WNW,299,0.0,0.0,91,0.00,,,0.00,0,Wunderground v.1.15,2013-03-05 08:13:00,
2013-03-05 03:18:00,19.4,17.2,29.89,WNW,299,0.0,0.0,91,0.00,,,0.00,0,Wunderground v.1.15,2013-03-05 08:18:00,
2013-03-05 03:24:00,19.3,17.1,29.88,WNW,299,0.0,0.0,91,0.00,,,0.00,0,Wunderground v.1.15,2013-03-05 08:24:00,
2013-03-05 03:29:00,19.3,17.1,29.88,WNW,299,0.0,0.0,91,0.00,,,0.00,0,Wunderground v.1.15,2013-03-05 08:29:00,
2013-03-05 03:35:00,19.2,17.0,29.88,WNW,299,0.0,0.0,91,0.00,,,0.00,0,Wunderground v.1.15,2013-03-05 08:35:00,
2013-03-05 03:41:00,19.1,16.9,29.88,WNW,299,0.0,0.0,91,0.00,,,0.00,0,Wunderground v.1.15,2013-03-05 08:41:00,
2013-03-05 03:47:00,19.1,16.9,29.88,WNW,299,0.0,0.0,91,0.00,,,0.00,0,Wunderground v.1.15,2013-03-05 08:47:00,
2013-03-05 03:52:00,19.0,16.8,29.88,WNW,299,0.0,0.0,91,0.00,,,0.00,0,Wunderground v.1.15,2013-03-05 08:52:00,
2013-03-05 03:57:00,19.0,16.8,29.88,WNW,299,0.0,0.0,91,0.00,,,0.00,0,Wunderground v.1.15,2013-03-05 08:57:00,
2013-03-05 04:02:00,18.9,16.7,29.88,WNW,299,0.0,0.0,91,0.00,,,0.00,0,Wunderground v.1.15,2013-03-05 09:02:00,
2013-03-05 04:08:00,19.0,16.8,29.87,WNW,299,0.0,0.0,91,0.00,,,0.00,0,Wunderground v.1.15,2013-03-05 09:08:00,
2013-03-05 04:14:00,18.9,16.7,29.88,WNW,299,0.0,0.0,91,0.00,,,0.00,0,Wunderground v.1.15,2013-03-05 09:14:00,
2013-03-05 04:20:00,18.8,16.6,29.88,WNW,299,0.0,0.0,91,0.00,,,0.00,0,Wunderground v.1.15,2013-03-05 09:20:00,
2013-03-05 04:25:00,18.6,16.4,29.87,WNW,299,0.0,0.0,91,0.00,,,0.00,0,Wunderground v.1.15,2013-03-05 09:25:00,
2013-03-05 04:31:00,18.6,16.4,29.88,WNW,299,0.0,0.0,91,0.00,,,0.00,0,Wunderground v.1.15,2013-03-05 09:31:00,
2013-03-05 04:37:00,18.6,16.4,29.88,WNW,299,0.0,0.0,91,0.00,,,0.00,0,Wunderground v.1.15,2013-03-05 09:37:00,
2013-03-05 04:42:00,18.5,16.3,29.88,WNW,299,0.0,0.0,91,0.00,,,0.00,0,Wunderground v.1.15,2013-03-05 09:42:00,
2013-03-05 04:48:00,18.5,16.3,29.88,WNW,299,0.0,0.0,91,0.00,,,0.00,0,Wunderground v.1.15,2013-03-05 09:48:00,
2013-03-05 04:53:00,18.4,16.2,29.88,WNW,299,0.0,0.0,91,0.00,,,0.00,0,Wunderground v.1.15,2013-03-05 09:53:00,
2013-03-05 04:59:00,18.4,16.2,29.88,WNW,299,0.0,0.0,91,0.00,,,0.00,0,Wunderground v.1.15,2013-03-05 09:59:00,
2013-03-05 05:04:00,18.2,16.0,29.88,WNW,299,0.0,0.0,91,0.00,,,0.00,0,Wunderground v.1.15,2013-03-05 10:04:00,
2013-03-05 05:09:00,18.2,16.0,29.88,WNW,299,0.0,0.0,91,0.00,,,0.00,0,Wunderground v.1.15,2013-03-05 10:09:00,
2013-03-05 05:15:00,18.1,15.9,29.88,WNW,299,0.0,0.0,91,0.00,,,0.00,0,Wunderground v.1.15,2013-03-05 10:15:00,
2013-03-05 05:20:00,18.0,15.8,29.88,WNW,299,0.0,0.0,91,0.00,,,0.00,0,Wunderground v.1.15,2013-03-05 10:20:00,
2013-03-05 05:26:00,17.9,15.7,29.88,WNW,299,0.0,0.0,91,0.00,,,0.00,0,Wunderground v.1.15,2013-03-05 10:26:00,
2013-03-05 05:31:00,17.8,15.6,29.88,WNW,299,0.0,0.0,91,0.00,,,0.00,0,Wunderground v.1.15,2013-03-05 10:31:00,
2013-03-05 05:37:00,17.9,15.7,29.88,WNW,299,0.0,0.0,91,0.00,,,0.00,0,Wunderground v.1.15,2013-03-05 10:37:00,
2013-03-05 05:43:00,18.0,16.1,29.88,WNW,299,0.0,0.0,92,0.00,,,0.00,0,Wunderground v.1.15,2013-03-05 10:43:00,
2013-03-05 05:49:00,18.1,16.2,29.88,WNW,299,0.0,0.0,92,0.00,,,0.00,0,Wunderground v.1.15,2013-03-05 10:49:00,
2013-03-05 05:55:00,18.2,16.3,29.88,WNW,299,0.0,0.0,92,0.00,,,0.00,0,Wunderground v.1.15,2013-03-05 10:55:00,
2013-03-05 06:00:00,18.3,16.4,29.88,WNW,299,0.0,0.0,92,0.00,,,0.00,0,Wunderground v.1.15,2013-03-05 11:00:00,
2013-03-05 06:06:00,18.4,16.5,29.88,WNW,299,0.0,0.0,92,0.00,,,0.00,0,Wunderground v.1.15,2013-03-05 11:06:00,
2013-03-05 06:12:00,18.3,16.4,29.88,WNW,299,0.0,0.0,92,0.00,,,0.00,0,Wunderground v.1.15,2013-03-05 11:12:00,
2013-03-05 06:18:00,18.2,16.3,29.88,WNW,299,0.0,0.0,92,0.00,,,0.00,0,Wunderground v.1.15,2013-03-05 11:18:00,
2013-03-05 06:23:00,18.3,16.4,29.88,WNW,299,0.0,1.0,92,0.00,,,0.00,0,Wunderground v.1.15,2013-03-05 11:23:00,
2013-03-05 06:28:00,18.3,16.4,29.87,WNW,299,0.0,1.0,92,0.00,,,0.00,0,Wunderground v.1.15,2013-03-05 11:28:00,
2013-03-05 06:33:00,18.3,16.4,29.87,WNW,299,0.0,0.0,92,0.00,,,0.00,0,Wunderground v.1.15,2013-03-05 11:33:00,
2013-03-05 06:39:00,18.2,16.0,29.87,WNW,299,0.0,0.0,91,0.00,,,0.00,0,Wunderground v.1.15,2013-03-05 11:39:00,
2013-03-05 06:45:00,18.0,15.8,29.87,WNW,299,0.0,0.0,91,0.00,,,0.00,0,Wunderground v.1.15,2013-03-05 11:45:00,
2013-03-05 06:51:00,17.9,15.7,29.87,WNW,299,0.0,0.0,91,0.00,,,0.00,5,Wunderground v.1.15,2013-03-05 11:51:00,
2013-03-05 06:57:00,17.9,16.0,29.87,WNW,299,0.0,0.0,92,0.00,,,0.00,7,Wunderground v.1.15,2013-03-05 11:57:00,
2013-03-05 07:02:00,17.9,16.0,29.87,WNW,299,0.0,0.0,92,0.00,,,0.00,9,Wunderground v.1.15,2013-03-05 12:02:00,
2013-03-05 07:08:00,18.0,16.1,29.87,WNW,299,0.0,0.0,92,0.00,,,0.00,11,Wunderground v.1.15,2013-03-05 12:08:00,
2013-03-05 07:14:00,18.0,16.1,29.87,WNW,299,0.0,0.0,92,0.00,,,0.00,14,Wunderground v.1.15,2013-03-05 12:14:00,
2013-03-05 07:20:00,18.2,16.3,29.87,WNW,299,0.0,0.0,92,0.00,,,0.00,18,Wunderground v.1.15,2013-03-05 12:20:00,
2013-03-05 07:26:00,18.4,16.5,29.87,WNW,299,0.0,0.0,92,0.00,,,0.00,21,Wunderground v.1.15,2013-03-05 12:26:00,
2013-03-05 07:31:00,18.9,17.2,29.86,WNW,299,0.0,0.0,93,0.00,,,0.00,25,Wunderground v.1.15,2013-03-05 12:31:00,
2013-03-05 07:37:00,19.6,17.9,29.87,WNW,299,0.0,0.0,93,0.00,,,0.00,26,Wunderground v.1.15,2013-03-05 12:37:00,
2013-03-05 07:43:00,20.7,19.2,29.87,WNW,299,0.0,0.0,94,0.00,,,0.00,28,Wunderground v.1.15,2013-03-05 12:43:00,
2013-03-05 07:48:00,21.5,20.0,29.86,WNW,299,0.0,0.0,94,0.00,,,0.00,30,Wunderground v.1.15,2013-03-05 12:48:00,
2013-03-05 07:54:00,22.4,20.9,29.87,ENE,57,0.0,1.0,94,0.00,,,0.00,32,Wunderground v.1.15,2013-03-05 12:54:00,
2013-03-05 07:59:00,23.1,21.1,29.87,East,85,0.0,2.0,92,0.00,,,0.00,33,Wunderground v.1.15,2013-03-05 12:59:00,
2013-03-05 08:05:00,23.8,21.3,29.86,East,87,0.0,2.0,90,0.00,,,0.00,35,Wunderground v.1.15,2013-03-05 13:05:00,
2013-03-05 08:10:00,24.3,21.3,29.87,East,90,0.0,3.0,88,0.00,,,0.00,37,Wunderground v.1.15,2013-03-05 13:10:00,
2013-03-05 08:16:00,24.8,21.2,29.86,East,99,1.0,5.0,86,0.00,,,0.00,39,Wunderground v.1.15,2013-03-05 13:16:00,
2013-03-05 08:21:00,25.2,21.3,29.86,East,94,1.0,2.0,85,0.00,,,0.00,40,Wunderground v.1.15,2013-03-05 13:21:00,
2013-03-05 08:27:00,25.8,21.9,29.86,East,86,1.0,2.0,85,0.00,,,0.00,46,Wunderground v.1.15,2013-03-05 13:27:00,
2013-03-05 08:32:00,26.3,22.1,29.86,East,86,0.0,1.0,84,0.00,,,0.00,51,Wunderground v.1.15,2013-03-05 13:32:00,
2013-03-05 08:38:00,26.8,22.0,29.86,ENE,58,0.0,3.0,82,0.00,,,0.00,60,Wunderground v.1.15,2013-03-05 13:38:00,
2013-03-05 08:43:00,26.9,22.1,29.86,East,83,1.0,2.0,82,0.00,,,0.00,72,Wunderground v.1.15,2013-03-05 13:43:00,
2013-03-05 08:49:00,27.4,22.6,29.85,ESE,115,0.0,5.0,82,0.00,,,0.00,88,Wunderground v.1.15,2013-03-05 13:49:00,
2013-03-05 08:54:00,27.9,22.5,29.85,ESE,103,1.0,4.0,80,0.00,,,0.00,107,Wunderground v.1.15,2013-03-05 13:54:00,
2013-03-05 09:00:00,28.3,22.9,29.85,NE,42,0.0,1.0,80,0.00,,,0.00,137,Wunderground v.1.15,2013-03-05 14:00:00,
2013-03-05 09:06:00,28.7,23.3,29.85,East,97,0.0,3.0,80,0.00,,,0.00,167,Wunderground v.1.15,2013-03-05 14:06:00,
2013-03-05 09:12:00,29.3,23.6,29.85,East,100,0.0,1.0,79,0.00,,,0.00,213,Wunderground v.1.15,2013-03-05 14:12:00,
2013-03-05 09:18:00,30.2,23.9,29.85,ESE,104,0.0,3.0,77,0.00,,,0.00,258,Wunderground v.1.15,2013-03-05 14:18:00,
2013-03-05 09:24:00,30.7,24.0,29.85,ESE,104,0.0,1.0,76,0.00,,,0.00,278,Wunderground v.1.15,2013-03-05 14:24:00,
2013-03-05 09:29:00,31.2,24.2,29.85,East,86,0.0,3.0,75,0.00,,,0.00,322,Wunderground v.1.15,2013-03-05 14:29:00,
2013-03-05 09:34:00,31.4,24.4,29.85,ENE,76,0.0,2.0,75,0.00,,,0.00,322,Wunderground v.1.15,2013-03-05 14:34:00,
2013-03-05 09:40:00,31.6,24.3,29.86,East,95,0.0,0.0,74,0.00,,,0.00,352,Wunderground v.1.15,2013-03-05 14:40:00,
2013-03-05 09:46:00,32.0,24.3,29.86,NW,311,0.0,2.0,73,0.00,,,0.00,339,Wunderground v.1.15,2013-03-05 14:46:00,
2013-03-05 09:51:00,32.0,24.3,29.85,East,83,0.0,2.0,73,0.00,,,0.00,355,Wunderground v.1.15,2013-03-05 14:51:00,
2013-03-05 09:57:00,32.0,24.6,29.85,East,93,0.0,2.0,74,0.00,,,0.00,348,Wunderground v.1.15,2013-03-05 14:57:00,
2013-03-05 10:02:00,32.6,25.2,29.84,ESE,113,0.0,2.0,74,0.00,,,0.00,338,Wunderground v.1.15,2013-03-05 15:02:00,
2013-03-05 10:08:00,33.2,24.8,29.84,East,87,0.0,3.0,71,0.00,,,0.00,329,Wunderground v.1.15,2013-03-05 15:08:00,
2013-03-05 10:14:00,33.6,24.9,29.83,NNE,24,1.0,6.0,70,0.00,,,0.00,313,Wunderground v.1.15,2013-03-05 15:14:00,
2013-03-05 10:20:00,34.1,25.0,29.83,East,84,1.0,1.0,69,0.00,,,0.00,302,Wunderground v.1.15,2013-03-05 15:20:00,
2013-03-05 10:25:00,34.3,24.8,29.83,ENE,64,1.0,3.0,68,0.00,,,0.00,279,Wunderground v.1.15,2013-03-05 15:25:00,
2013-03-05 10:31:00,34.3,24.8,29.83,East,88,1.0,2.0,68,0.00,,,0.00,302,Wunderground v.1.15,2013-03-05 15:31:00,
2013-03-05 10:37:00,34.5,24.7,29.83,ESE,111,1.0,3.0,67,0.00,,,0.00,288,Wunderground v.1.15,2013-03-05 15:37:00,
2013-03-05 10:42:00,35.0,24.8,29.83,East,97,0.0,1.0,66,0.00,,,0.00,283,Wunderground v.1.15,2013-03-05 15:42:00,
2013-03-05 10:48:00,35.0,24.0,29.83,ENE,58,0.0,3.0,64,0.00,,,0.00,308,Wunderground v.1.15,2013-03-05 15:48:00,
2013-03-05 10:53:00,35.2,24.6,29.83,NNW,346,0.0,2.0,65,0.00,,,0.00,408,Wunderground v.1.15,2013-03-05 15:53:00,
2013-03-05 10:59:00,35.3,25.4,29.83,NNW,348,0.0,2.0,67,0.00,,,0.00,445,Wunderground v.1.15,2013-03-05 15:59:00,
2013-03-05 11:04:00,35.7,25.1,29.83,East,97,0.0,2.0,65,0.00,,,0.00,396,Wunderground v.1.15,2013-03-05 16:04:00,
2013-03-05 11:10:00,36.1,24.3,29.82,ENE,64,1.0,3.0,62,0.00,,,0.00,392,Wunderground v.1.15,2013-03-05 16:10:00,
2013-03-05 11:16:00,36.2,24.0,29.82,North,5,1.0,3.0,61,0.00,,,0.00,483,Wunderground v.1.15,2013-03-05 16:16:00,
2013-03-05 11:21:00,36.2,24.0,29.82,NNE,19,1.0,1.0,61,0.00,,,0.00,406,Wunderground v.1.15,2013-03-05 16:21:00,
2013-03-05 11:27:00,36.5,24.7,29.82,NNW,344,0.0,3.0,62,0.00,,,0.00,360,Wunderground v.1.15,2013-03-05 16:27:00,
2013-03-05 11:33:00,36.4,23.4,29.82,NE,53,1.0,3.0,59,0.00,,,0.00,360,Wunderground v.1.15,2013-03-05 16:33:00,
2013-03-05 11:38:00,36.6,24.0,29.81,ENE,72,1.0,4.0,60,0.00,,,0.00,323,Wunderground v.1.15,2013-03-05 16:38:00,
2013-03-05 11:44:00,36.9,23.1,29.81,East,84,1.0,4.0,57,0.00,,,0.00,422,Wunderground v.1.15,2013-03-05 16:44:00,
2013-03-05 11:49:00,37.3,23.9,29.81,ESE,120,1.0,4.0,58,0.00,,,0.00,513,Wunderground v.1.15,2013-03-05 16:49:00,
2013-03-05 11:54:00,37.7,23.4,29.80,ENE,73,1.0,4.0,56,0.00,,,0.00,543,Wunderground v.1.15,2013-03-05 16:54:00,
2013-03-05 12:00:00,38.0,22.8,29.80,SE,124,1.0,5.0,54,0.00,,,0.00,519,Wunderground v.1.15,2013-03-05 17:00:00,
2013-03-05 12:06:00,38.2,23.4,29.79,SSE,167,2.0,7.0,55,0.00,,,0.00,564,Wunderground v.1.15,2013-03-05 17:06:00,
2013-03-05 12:12:00,38.4,24.9,29.79,ENE,57,2.0,2.0,58,0.00,,,0.00,538,Wunderground v.1.15,2013-03-05 17:12:00,
2013-03-05 12:17:00,38.6,23.8,29.78,ESE,105,2.0,5.0,55,0.00,,,0.00,524,Wunderground v.1.15,2013-03-05 17:17:00,
2013-03-05 12:23:00,39.1,23.8,29.78,East,87,2.0,5.0,54,0.00,,,0.00,496,Wunderground v.1.15,2013-03-05 17:23:00,
2013-03-05 12:28:00,39.4,23.7,29.77,East,97,3.0,6.0,53,0.00,,,0.00,429,Wunderground v.1.15,2013-03-05 17:28:00,
2013-03-05 12:34:00,39.7,23.0,29.77,East,90,3.0,7.0,51,0.00,,,0.00,564,Wunderground v.1.15,2013-03-05 17:34:00,
2013-03-05 12:40:00,40.1,23.4,29.77,East,85,2.0,2.0,51,0.00,,,0.00,582,Wunderground v.1.15,2013-03-05 17:40:00,
2013-03-05 12:45:00,40.5,24.2,29.77,ENE,64,3.0,7.0,52,0.00,,,0.00,605,Wunderground v.1.15,2013-03-05 17:45:00,
2013-03-05 12:50:00,40.7,24.4,29.76,ENE,72,3.0,5.0,52,0.00,,,0.00,612,Wunderground v.1.15,2013-03-05 17:50:00,
2013-03-05 12:55:00,40.8,23.6,29.75,East,92,3.0,8.0,50,0.00,,,0.00,582,Wunderground v.1.15,2013-03-05 17:55:00,
2013-03-05 13:00:00,41.1,24.8,29.75,ENE,74,2.0,2.0,52,0.00,,,0.00,592,Wunderground v.1.15,2013-03-05 18:00:00,
2013-03-05 13:06:00,41.5,24.7,29.75,ENE,76,1.0,5.0,51,0.00,,,0.00,691,Wunderground v.1.15,2013-03-05 18:06:00,
2013-03-05 13:12:00,42.2,23.9,29.74,East,99,2.0,8.0,48,0.00,,,0.00,708,Wunderground v.1.15,2013-03-05 18:12:00,
2013-03-05 13:17:00,42.6,23.8,29.73,East,86,3.0,8.0,47,0.00,,,0.00,721,Wunderground v.1.15,2013-03-05 18:17:00,
2013-03-05 13:22:00,42.9,25.0,29.72,ENE,63,3.0,6.0,49,0.00,,,0.00,691,Wunderground v.1.15,2013-03-05 18:22:00,
2013-03-05 13:28:00,43.1,23.7,29.72,ESE,109,3.0,8.0,46,0.00,,,0.00,452,Wunderground v.1.15,2013-03-05 18:28:00,
2013-03-05 13:34:00,43.1,21.5,29.71,East,86,4.0,7.0,42,0.00,,,0.00,494,Wunderground v.1.15,2013-03-05 18:34:00,
2013-03-05 13:39:00,43.1,22.1,29.71,East,85,4.0,8.0,43,0.00,,,0.00,584,Wunderground v.1.15,2013-03-05 18:39:00,
2013-03-05 13:45:00,43.3,21.7,29.70,NE,40,3.0,8.0,42,0.00,,,0.00,445,Wunderground v.1.15,2013-03-05 18:45:00,
2013-03-05 13:51:00,43.6,22.0,29.70,ENE,76,2.0,5.0,42,0.00,,,0.00,309,Wunderground v.1.15,2013-03-05 18:51:00,
2013-03-05 13:57:00,43.7,21.5,29.70,ESE,107,2.0,5.0,41,0.00,,,0.00,496,Wunderground v.1.15,2013-03-05 18:57:00,
2013-03-05 14:02:00,43.9,15.9,29.70,SE,133,3.0,8.0,32,0.00,,,0.00,448,Wunderground v.1.15,2013-03-05 19:02:00,
2013-03-05 14:08:00,44.1,15.3,29.69,East,99,3.0,9.0,31,0.00,,,0.00,429,Wunderground v.1.15,2013-03-05 19:08:00,
2013-03-05 14:13:00,44.4,16.3,29.69,ESE,103,3.0,8.0,32,0.00,,,0.00,345,Wunderground v.1.15,2013-03-05 19:13:00,
2013-03-05 14:19:00,44.7,17.3,29.68,SSE,158,3.0,8.0,33,0.00,,,0.00,369,Wunderground v.1.15,2013-03-05 19:19:00,
2013-03-05 14:24:00,44.7,14.3,29.68,ESE,114,3.0,9.0,29,0.00,,,0.00,246,Wunderground v.1.15,2013-03-05 19:24:00,
2013-03-05 14:30:00,44.8,16.0,29.68,SE,143,4.0,4.0,31,0.00,,,0.00,323,Wunderground v.1.15,2013-03-05 19:30:00,
2013-03-05 14:35:00,45.0,16.9,29.68,ESE,115,3.0,8.0,32,0.00,,,0.00,295,Wunderground v.1.15,2013-03-05 19:35:00,
2013-03-05 14:41:00,45.1,17.0,29.67,ESE,111,4.0,8.0,32,0.00,,,0.00,200,Wunderground v.1.15,2013-03-05 19:41:00,
2013-03-05 14:47:00,45.1,18.4,29.67,SE,141,3.0,8.0,34,0.00,,,0.00,241,Wunderground v.1.15,2013-03-05 19:47:00,
2013-03-05 14:52:00,45.0,19.6,29.66,ENE,76,3.0,5.0,36,0.00,,,0.00,308,Wunderground v.1.15,2013-03-05 19:52:00,
2013-03-05 14:58:00,45.2,21.1,29.66,ESE,103,2.0,7.0,38,0.00,,,0.00,352,Wunderground v.1.15,2013-03-05 19:58:00,
2013-03-05 15:03:00,45.3,21.2,29.66,ESE,107,2.0,6.0,38,0.00,,,0.00,271,Wunderground v.1.15,2013-03-05 20:03:00,
2013-03-05 15:09:00,45.4,20.0,29.65,East,98,3.0,10.0,36,0.00,,,0.00,202,Wunderground v.1.15,2013-03-05 20:09:00,
2013-03-05 15:14:00,45.2,19.8,29.65,ESE,104,4.0,7.0,36,0.00,,,0.00,329,Wunderground v.1.15,2013-03-05 20:14:00,
2013-03-05 15:20:00,45.2,21.1,29.65,ENE,58,3.0,3.0,38,0.00,,,0.00,246,Wunderground v.1.15,2013-03-05 20:20:00,
2013-03-05 15:25:00,45.4,21.2,29.64,East,80,3.0,7.0,38,0.00,,,0.00,257,Wunderground v.1.15,2013-03-05 20:25:00,
2013-03-05 15:31:00,45.7,22.7,29.64,ESE,114,3.0,7.0,40,0.00,,,0.00,257,Wunderground v.1.15,2013-03-05 20:31:00,
2013-03-05 15:37:00,46.1,22.5,29.64,ENE,67,4.0,14.0,39,0.00,,,0.00,359,Wunderground v.1.15,2013-03-05 20:37:00,
2013-03-05 15:43:00,46.3,22.7,29.64,East,101,4.0,8.0,39,0.00,,,0.00,308,Wunderground v.1.15,2013-03-05 20:43:00,
2013-03-05 15:48:00,46.4,22.1,29.63,ESE,113,4.0,9.0,38,0.00,,,0.00,413,Wunderground v.1.15,2013-03-05 20:48:00,
2013-03-05 15:53:00,46.6,21.7,29.63,SE,140,3.0,8.0,37,0.00,,,0.00,471,Wunderground v.1.15,2013-03-05 20:53:00,
2013-03-05 15:59:00,46.7,21.8,29.63,East,100,4.0,10.0,37,0.00,,,0.00,417,Wunderground v.1.15,2013-03-05 20:59:00,
2013-03-05 16:04:00,46.9,22.0,29.63,ESE,109,4.0,11.0,37,0.00,,,0.00,207,Wunderground v.1.15,2013-03-05 21:04:00,
2013-03-05 16:10:00,47.1,22.1,29.62,SE,124,3.0,3.0,37,0.00,,,0.00,186,Wunderground v.1.15,2013-03-05 21:10:00,
2013-03-05 16:15:00,47.0,22.0,29.63,SE,136,4.0,11.0,37,0.00,,,0.00,148,Wunderground v.1.15,2013-03-05 21:15:00,
2013-03-05 16:21:00,47.2,22.9,29.63,SSE,150,3.0,4.0,38,0.00,,,0.00,130,Wunderground v.1.15,2013-03-05 21:21:00,
2013-03-05 16:27:00,47.2,22.2,29.62,East,92,2.0,8.0,37,0.00,,,0.00,100,Wunderground v.1.15,2013-03-05 21:27:00,
2013-03-05 16:33:00,47.1,22.1,29.62,SE,125,3.0,5.0,37,0.00,,,0.00,95,Wunderground v.1.15,2013-03-05 21:33:00,
2013-03-05 16:38:00,46.9,22.0,29.62,East,96,3.0,8.0,37,0.00,,,0.00,109,Wunderground v.1.15,2013-03-05 21:38:00,
2013-03-05 16:44:00,46.8,22.5,29.62,East,100,2.0,8.0,38,0.00,,,0.00,137,Wunderground v.1.15,2013-03-05 21:44:00,
2013-03-05 16:49:00,46.8,22.5,29.61,East,90,2.0,8.0,38,0.00,,,0.00,109,Wunderground v.1.15,2013-03-05 21:49:00,
2013-03-05 16:55:00,46.8,22.5,29.61,ENE,63,2.0,5.0,38,0.00,,,0.00,100,Wunderground v.1.15,2013-03-05 21:55:00,
2013-03-05 17:00:00,46.8,22.5,29.61,East,95,1.0,6.0,38,0.00,,,0.00,93,Wunderground v.1.15,2013-03-05 22:00:00,
2013-03-05 17:06:00,46.7,23.0,29.60,East,86,1.0,6.0,39,0.00,,,0.00,79,Wunderground v.1.15,2013-03-05 22:06:00,
2013-03-05 17:12:00,46.6,22.3,29.60,East,96,1.0,3.0,38,0.00,,,0.00,65,Wunderground v.1.15,2013-03-05 22:12:00,
2013-03-05 17:17:00,46.5,22.2,29.60,East,94,1.0,6.0,38,0.00,,,0.00,63,Wunderground v.1.15,2013-03-05 22:17:00,
2013-03-05 17:22:00,46.3,22.0,29.60,East,86,1.0,5.0,38,0.00,,,0.00,56,Wunderground v.1.15,2013-03-05 22:22:00,
2013-03-05 17:28:00,46.1,21.9,29.59,NE,56,2.0,7.0,38,0.00,,,0.00,49,Wunderground v.1.15,2013-03-05 22:28:00,
2013-03-05 17:34:00,45.9,22.3,29.59,ESE,107,1.0,2.0,39,0.00,,,0.00,42,Wunderground v.1.15,2013-03-05 22:34:00,
2013-03-05 17:39:00,45.8,21.6,29.59,East,79,0.0,2.0,38,0.00,,,0.00,35,Wunderground v.1.15,2013-03-05 22:39:00,
2013-03-05 17:44:00,45.5,21.9,29.59,East,82,0.0,1.0,39,0.00,,,0.00,25,Wunderground v.1.15,2013-03-05 22:44:00,
2013-03-05 17:50:00,45.3,21.8,29.58,ESE,113,0.0,1.0,39,0.00,,,0.00,16,Wunderground v.1.15,2013-03-05 22:50:00,
2013-03-05 17:56:00,45.0,22.1,29.58,East,95,0.0,1.0,40,0.00,,,0.00,12,Wunderground v.1.15,2013-03-05 22:56:00,
2013-03-05 18:01:00,44.7,21.8,29.58,East,96,0.0,1.0,40,0.00,,,0.00,9,Wunderground v.1.15,2013-03-05 23:01:00,
2013-03-05 18:07:00,44.4,21.6,29.57,ESE,113,0.0,2.0,40,0.00,,,0.00,5,Wunderground v.1.15,2013-03-05 23:07:00,
2013-03-05 18:13:00,44.1,21.3,29.56,East,92,1.0,6.0,40,0.00,,,0.00,0,Wunderground v.1.15,2013-03-05 23:13:00,
2013-03-05 18:18:00,43.9,21.1,29.56,ESE,103,1.0,7.0,40,0.00,,,0.00,0,Wunderground v.1.15,2013-03-05 23:18:00,
2013-03-05 18:24:00,43.7,22.1,29.56,East,84,1.0,2.0,42,0.00,,,0.00,0,Wunderground v.1.15,2013-03-05 23:24:00,
2013-03-05 18:29:00,43.4,22.4,29.57,ENE,77,0.0,4.0,43,0.00,,,0.00,0,Wunderground v.1.15,2013-03-05 23:29:00,
2013-03-05 18:35:00,43.1,22.6,29.57,East,80,0.0,1.0,44,0.00,,,0.00,0,Wunderground v.1.15,2013-03-05 23:35:00,
2013-03-05 18:40:00,42.8,22.9,29.57,ENE,77,0.0,1.0,45,0.00,,,0.00,0,Wunderground v.1.15,2013-03-05 23:40:00,
2013-03-05 18:46:00,42.5,22.6,29.56,East,84,0.0,6.0,45,0.00,,,0.00,0,Wunderground v.1.15,2013-03-05 23:46:00,
2013-03-05 18:52:00,42.3,23.0,29.56,East,90,1.0,3.0,46,0.00,,,0.00,0,Wunderground v.1.15,2013-03-05 23:52:00,
2013-03-05 18:57:00,42.2,23.4,29.56,East,83,0.0,3.0,47,0.00,,,0.00,0,Wunderground v.1.15,2013-03-05 23:57:00,
2013-03-05 19:02:00,42.0,23.2,29.56,East,88,0.0,2.0,47,0.00,,,0.00,0,Wunderground v.1.15,2013-03-06 00:02:00,
2013-03-05 19:08:00,41.9,23.1,29.55,ENE,65,1.0,3.0,47,0.00,,,0.00,0,Wunderground v.1.15,2013-03-06 00:08:00,
2013-03-05 19:13:00,41.8,23.0,29.55,East,92,0.0,3.0,47,0.00,,,0.00,0,Wunderground v.1.15,2013-03-06 00:13:00,
2013-03-05 19:18:00,41.8,23.0,29.55,ENE,76,0.0,3.0,47,0.00,,,0.00,0,Wunderground v.1.15,2013-03-06 00:18:00,
2013-03-05 19:24:00,41.7,22.9,29.55,East,101,0.0,2.0,47,0.00,,,0.00,0,Wunderground v.1.15,2013-03-06 00:24:00,
2013-03-05 19:30:00,41.7,22.9,29.54,NE,38,1.0,1.0,47,0.00,,,0.00,0,Wunderground v.1.15,2013-03-06 00:30:00,
2013-03-05 19:35:00,42.1,21.7,29.54,ESE,115,3.0,12.0,44,0.00,,,0.00,0,Wunderground v.1.15,2013-03-06 00:35:00,
2013-03-05 19:41:00,42.8,22.4,29.54,ESE,121,4.0,6.0,44,0.00,,,0.00,0,Wunderground v.1.15,2013-03-06 00:41:00,
2013-03-05 19:47:00,43.1,22.1,29.54,ESE,103,3.0,8.0,43,0.00,,,0.00,0,Wunderground v.1.15,2013-03-06 00:47:00,
2013-03-05 19:53:00,43.2,22.2,29.54,East,92,3.0,8.0,43,0.00,,,0.00,0,Wunderground v.1.15,2013-03-06 00:53:00,
2013-03-05 19:58:00,43.1,21.0,29.53,East,87,3.0,10.0,41,0.00,,,0.00,0,Wunderground v.1.15,2013-03-06 00:58:00,
2013-03-05 20:04:00,43.0,20.9,29.53,East,97,3.0,8.0,41,0.00,,,0.00,0,Wunderground v.1.15,2013-03-06 01:04:00,
2013-03-05 20:10:00,42.8,21.3,29.52,East,94,3.0,3.0,42,0.00,,,0.00,0,Wunderground v.1.15,2013-03-06 01:10:00,
2013-03-05 20:15:00,42.7,21.2,29.52,ESE,117,3.0,7.0,42,0.00,,,0.00,0,Wunderground v.1.15,2013-03-06 01:15:00,
2013-03-05 20:21:00,42.4,21.5,29.52,ESE,105,3.0,6.0,43,0.00,,,0.00,0,Wunderground v.1.15,2013-03-06 01:21:00,
2013-03-05 20:26:00,42.2,21.3,29.51,ENE,76,3.0,8.0,43,0.00,,,0.00,0,Wunderground v.1.15,2013-03-06 01:26:00,
2013-03-05 20:32:00,42.0,21.1,29.51,East,96,3.0,8.0,43,0.00,,,0.00,0,Wunderground v.1.15,2013-03-06 01:32:00,
2013-03-05 20:38:00,41.8,20.9,29.51,East,88,3.0,8.0,43,0.00,,,0.00,0,Wunderground v.1.15,2013-03-06 01:38:00,
2013-03-05 20:44:00,41.7,21.4,29.50,ESE,108,4.0,9.0,44,0.00,,,0.00,0,Wunderground v.1.15,2013-03-06 01:44:00,
2013-03-05 20:49:00,41.5,21.2,29.50,ENE,74,3.0,9.0,44,0.00,,,0.00,0,Wunderground v.1.15,2013-03-06 01:49:00,
2013-03-05 20:55:00,41.4,21.1,29.50,East,91,3.0,8.0,44,0.00,,,0.00,0,Wunderground v.1.15,2013-03-06 01:55:00,
2013-03-05 21:00:00,41.3,21.5,29.50,East,101,3.0,7.0,45,0.00,,,0.00,0,Wunderground v.1.15,2013-03-06 02:00:00,
2013-03-05 21:06:00,41.2,21.4,29.50,ESE,108,3.0,8.0,45,0.00,,,0.00,0,Wunderground v.1.15,2013-03-06 02:06:00,
2013-03-05 21:12:00,41.1,21.3,29.49,ENE,61,3.0,9.0,45,0.00,,,0.00,0,Wunderground v.1.15,2013-03-06 02:12:00,
2013-03-05 21:18:00,41.1,21.9,29.49,ESE,105,2.0,11.0,46,0.00,,,0.00,0,Wunderground v.1.15,2013-03-06 02:18:00,
2013-03-05 21:24:00,41.0,21.3,29.49,South,169,3.0,11.0,45,0.00,,,0.00,0,Wunderground v.1.15,2013-03-06 02:24:00,
2013-03-05 21:29:00,41.0,21.8,29.49,ESE,123,4.0,11.0,46,0.00,,,0.00,0,Wunderground v.1.15,2013-03-06 02:29:00,
2013-03-05 21:35:00,41.0,21.3,29.49,ESE,115,4.0,9.0,45,0.00,,,0.00,0,Wunderground v.1.15,2013-03-06 02:35:00,
2013-03-05 21:40:00,41.1,21.3,29.49,ESE,117,4.0,4.0,45,0.00,,,0.00,0,Wunderground v.1.15,2013-03-06 02:40:00,
2013-03-05 21:46:00,41.1,21.3,29.49,SE,130,4.0,14.0,45,0.00,,,0.00,0,Wunderground v.1.15,2013-03-06 02:46:00,
2013-03-05 21:52:00,41.1,21.3,29.49,East,82,5.0,14.0,45,0.00,,,0.00,0,Wunderground v.1.15,2013-03-06 02:52:00,
2013-03-05 21:58:00,41.2,21.4,29.50,ESE,116,5.0,14.0,45,0.00,,,0.00,0,Wunderground v.1.15,2013-03-06 02:58:00,
2013-03-05 22:04:00,41.2,22.0,29.49,SE,146,4.0,11.0,46,0.00,,,0.00,0,Wunderground v.1.15,2013-03-06 03:04:00,
2013-03-05 22:09:00,41.2,22.0,29.49,SE,137,4.0,11.0,46,0.00,,,0.00,0,Wunderground v.1.15,2013-03-06 03:09:00,
2013-03-05 22:14:00,41.1,22.4,29.49,ESE,115,4.0,10.0,47,0.00,,,0.00,0,Wunderground v.1.15,2013-03-06 03:14:00,
2013-03-05 22:20:00,41.1,22.4,29.49,ESE,117,5.0,10.0,47,0.00,,,0.00,0,Wunderground v.1.15,2013-03-06 03:20:00,
2013-03-05 22:25:00,41.1,22.4,29.49,East,101,6.0,11.0,47,0.00,,,0.00,0,Wunderground v.1.15,2013-03-06 03:25:00,
2013-03-05 22:31:00,41.0,22.8,29.50,ESE,123,5.0,8.0,48,0.00,,,0.00,0,Wunderground v.1.15,2013-03-06 03:31:00,
2013-03-05 22:37:00,40.9,23.2,29.49,ESE,117,4.0,8.0,49,0.00,,,0.00,0,Wunderground v.1.15,2013-03-06 03:37:00,
2013-03-05 22:42:00,40.9,23.7,29.49,East,96,4.0,8.0,50,0.00,,,0.00,0,Wunderground v.1.15,2013-03-06 03:42:00,
2013-03-05 22:48:00,40.8,23.6,29.48,East,101,4.0,9.0,50,0.00,,,0.00,0,Wunderground v.1.15,2013-03-06 03:48:00,
2013-03-05 22:54:00,40.7,24.0,29.48,SE,135,4.0,10.0,51,0.00,,,0.00,0,Wunderground v.1.15,2013-03-06 03:54:00,
2013-03-05 22:59:00,40.7,23.5,29.49,ESE,102,4.0,13.0,50,0.00,,,0.00,0,Wunderground v.1.15,2013-03-06 03:59:00,
2013-03-05 23:04:00,40.7,24.0,29.48,ESE,122,4.0,11.0,51,0.00,,,0.00,0,Wunderground v.1.15,2013-03-06 04:04:00,
2013-03-05 23:10:00,40.8,24.1,29.49,SE,134,5.0,5.0,51,0.00,,,0.00,0,Wunderground v.1.15,2013-03-06 04:10:00,
2013-03-05 23:16:00,40.7,24.0,29.48,SE,135,4.0,8.0,51,0.00,,,0.00,0,Wunderground v.1.15,2013-03-06 04:16:00,
2013-03-05 23:22:00,40.7,24.9,29.48,SE,137,4.0,11.0,53,0.00,,,0.00,0,Wunderground v.1.15,2013-03-06 04:22:00,
2013-03-05 23:27:00,40.6,25.2,29.48,SE,144,5.0,11.0,54,0.00,,,0.00,0,Wunderground v.1.15,2013-03-06 04:27:00,
2013-03-05 23:33:00,40.2,27.4,29.49,ESE,115,7.0,15.0,60,0.00,,,0.00,0,Wunderground v.1.15,2013-03-06 04:33:00,
2013-03-05 23:38:00,39.1,30.5,29.49,SSE,153,9.0,20.0,71,0.00,,,0.00,0,Wunderground v.1.15,2013-03-06 04:38:00,
2013-03-05 23:44:00,37.6,31.0,29.48,SE,138,8.0,14.0,77,0.00,,,0.00,0,Wunderground v.1.15,2013-03-06 04:44:00,
2013-03-05 23:50:00,36.4,31.1,29.48,ENE,78,6.0,6.0,81,0.00,,,0.00,0,Wunderground v.1.15,2013-03-06 04:50:00,
2013-03-05 23:55:00,35.6,31.2,29.48,ESE,123,5.0,12.0,84,0.00,,,0.00,0,Wunderground v.1.15,2013-03-06 04:55:00,